Tulsa, OK

3:11 AM CST on February 14, 2016 (GMT -0600)
Tulsa International

Weather History for KTUL - July, 2013

Change the Weather History Date:

Sunday, July 28, 2013

  Actual Average Record
Temperature  
Mean Temperature 77 °F 84 °F  
Max Temperature 86 °F 94 °F 109 °F (1936)
Min Temperature 67 °F 73 °F 58 °F (2005)
Cooling Degree Days 12 19  
Month to date cooling degree days 458 499  
Year to date cooling degree days 1081 1112  
Since 1 June cooling degree days 889 878  
Growing Degree Days 26 (Base 50)    
Moisture  
Dew Point 64 °F    
Average Humidity 71    
Maximum Humidity 87    
Minimum Humidity 54    
Precipitation  
Precipitation 0.00 in 0.09 in 2.72 in (1976)
Month to date precipitation 3.70 3.08  
Year to date precipitation 19.27 24.30  
Sea Level Pressure  
Sea Level Pressure 29.97 in    
Wind  
Wind Speed 7 mph (ENE)    
Max Wind Speed 18 mph    
Max Gust Speed 23 mph    
Visibility 10 miles    
Events      
T = Trace of Precipitation, MM = Missing Value Source: NWS Daily Summary

Daily Weather History Graph

Daily Weather History Graph

Search for Another Location

Airport or City:

Trip Planner

Search our weather history database for the weather conditions in past years. The results will help you decide how hot, cold, wet, or windy it might be!

Date:

Astronomy

Jul. 28, 2013 Rise Set
Actual Time 6:27 AM CDT 8:32 PM CDT
Civil Twilight 5:58 AM CDT 9:00 PM CDT
Nautical Twilight 5:24 AM CDT 9:35 PM CDT
Astronomical Twilight 4:46 AM CDT 10:12 PM CDT
Moon No Moon Rise 12:56 PM CDT (7/28)
Length of Visible Light 15h 01m
Length of Day
14h 04m
Waning Gibbous, 60% of the Moon is Illuminated
Jul 28
Waning Gibbous
Jul 29
Last Quarter
Aug 6
New
Aug 14
First Quarter
Aug 20
Full

Hourly Weather History & Observations

Time (CDT) Temp. Heat Index Dew Point Humidity Pressure Visibility Wind Dir Wind Speed Gust Speed Precip Events Conditions
12:53 AM 71.1 °F - 60.1 °F 68% 29.96 in 10.0 mi ENE 5.8 mph - N/A   Mostly Cloudy
1:53 AM 70.0 °F - 62.1 °F 76% 29.99 in 10.0 mi Calm Calm - N/A   Overcast
2:53 AM 71.1 °F - 60.1 °F 68% 29.96 in 10.0 mi NE 3.5 mph - N/A   Overcast
3:53 AM 69.1 °F - 62.1 °F 78% 29.96 in 10.0 mi North 3.5 mph - N/A   Overcast
4:53 AM 66.9 °F - 62.1 °F 84% 29.98 in 10.0 mi North 5.8 mph - N/A   Overcast
5:53 AM 68.0 °F - 63.0 °F 84% 29.99 in 10.0 mi NE 6.9 mph - N/A   Mostly Cloudy
6:53 AM 68.0 °F - 62.1 °F 81% 30.01 in 10.0 mi NE 8.1 mph - N/A   Mostly Cloudy
7:53 AM 68.0 °F - 61.0 °F 78% 30.01 in 10.0 mi NNE 4.6 mph - N/A   Mostly Cloudy
8:53 AM 71.1 °F - 62.1 °F 73% 30.00 in 10.0 mi NE 10.4 mph - N/A   Scattered Clouds
9:53 AM 72.0 °F - 62.1 °F 71% 29.99 in 10.0 mi East 5.8 mph - N/A   Scattered Clouds
10:53 AM 77.0 °F - 63.0 °F 62% 29.99 in 10.0 mi SE 6.9 mph - N/A   Scattered Clouds
11:53 AM 80.1 °F 81.2 °F 62.1 °F 54% 30.00 in 10.0 mi Variable 3.5 mph - N/A   Scattered Clouds
12:53 PM 82.9 °F 84.6 °F 64.9 °F 54% 29.98 in 10.0 mi SSE 8.1 mph - N/A   Scattered Clouds
1:53 PM 82.0 °F 84.1 °F 66.0 °F 58% 29.97 in 10.0 mi SSE 8.1 mph - N/A   Mostly Cloudy
2:53 PM 84.0 °F 86.3 °F 66.0 °F 55% 29.96 in 10.0 mi East 5.8 mph - N/A   Mostly Cloudy
3:53 PM 84.9 °F 87.6 °F 66.9 °F 55% 29.95 in 10.0 mi East 9.2 mph - N/A   Mostly Cloudy
4:53 PM 84.0 °F 86.3 °F 66.0 °F 55% 29.93 in 10.0 mi East 10.4 mph - N/A   Mostly Cloudy
5:53 PM 82.0 °F 84.9 °F 68.0 °F 62% 29.93 in 10.0 mi ENE 13.8 mph 21.9 mph N/A   Mostly Cloudy
6:53 PM 80.1 °F 82.3 °F 66.9 °F 64% 29.94 in 10.0 mi ENE 13.8 mph 21.9 mph N/A   Mostly Cloudy
7:53 PM 78.1 °F - 66.0 °F 66% 29.95 in 10.0 mi East 16.1 mph 20.7 mph N/A   Mostly Cloudy
8:53 PM 75.0 °F - 64.0 °F 69% 29.95 in 10.0 mi East 8.1 mph - N/A   Mostly Cloudy
9:53 PM 73.9 °F - 64.0 °F 71% 29.97 in 10.0 mi East 5.8 mph - N/A   Mostly Cloudy
10:53 PM 73.0 °F - 64.9 °F 76% 29.97 in 10.0 mi East 4.6 mph - N/A   Scattered Clouds
11:53 PM 72.0 °F - 64.9 °F 78% 29.97 in 10.0 mi East 3.5 mph - N/A   Scattered Clouds